Printer-friendly version

IAU Minor Planet Center

Minor Planet Center

MPEC 2007-T52 : 2007 TM15

The following Minor Planet Electronic Circular may be linked-to from your own Web pages, but must not otherwise be redistributed electronically.


Read MPEC 2007-T51 Read MPEC 2007-T53


M.P.E.C. 2007-T52                                Issued 2007 Oct.  9, 19:48 UT

     The Minor Planet Electronic Circulars contain information on unusual
         minor planets and routine data on comets.  They are published
   on behalf of Commission 20 of the International Astronomical Union by the
          Minor Planet Center, Smithsonian Astrophysical Observatory,
                          Cambridge, MA 02138, U.S.A.

             Prepared using the Tamkin Foundation Computer Network

                              MPC@CFA.HARVARD.EDU
          URL http://www.cfa.harvard.edu/iau/mpc.html  ISSN 1523-6714

                                   2007 TM15

Observations:
     K07T15M* C2007 10 08.47910 03 07 04.04 +11 30 54.0          20.0 V ET052G96
     K07T15M  C2007 10 08.48624 03 07 01.38 +11 31 44.0          20.2 V ET052G96
     K07T15M  C2007 10 08.49329 03 06 58.71 +11 32 33.7          20.3 V ET052G96
     K07T15M  C2007 10 08.50037 03 06 56.01 +11 33 23.9          20.2 V ET052G96
     K07T15M  C2007 10 08.50752 03 06 53.31 +11 34 14.1          20.2 V ET052G96
     K07T15M  C2007 10 08.50918 03 06 52.70 +11 34 25.9          20.0 V ET052G96
     K07T15M  C2007 10 08.51086 03 06 52.02 +11 34 37.8          20.2 V ET052G96
     K07T15M  C2007 10 08.51260 03 06 51.37 +11 34 50.0          20.4 V ET052G96
     K07T15M  C2007 10 09.39892 03 01 04.98 +13 23 30.6          21.2 V ET052G96
     K07T15M  C2007 10 09.39947 03 01 04.72 +13 23 35.4          20.8 V ET052G96
     K07T15M  C2007 10 09.40589 03 01 02.02 +13 24 23.8          20.9 V ET052G96
     K07T15M  C2007 10 09.40646 03 01 01.81 +13 24 28.5          20.7 V ET052G96
     K07T15M  C2007 10 09.41282 03 00 59.11 +13 25 16.9          20.7 V ET052G96
     K07T15M  C2007 10 09.41336 03 00 58.86 +13 25 21.5          20.8 V ET052G96
     K07T15M  C2007 10 09.41976 03 00 56.16 +13 26 09.6          20.7 V ET052G96
     K07T15M  C2007 10 09.42030 03 00 55.90 +13 26 13.8          20.2 V ET052G96

Observer details:
G96 Mt. Lemmon Survey.  Observer E. Beshore.  Measurers E. C. Beshore,
    A. Boattini, G. J. Garradd, A. R. Gibbs, A. D. Grauer, R. E. Hill,
    R. A. Kowalski, S. M. Larson, R. H. McNaught.  1.5-m reflector + CCD.

Orbital elements:
2007 TM15                                                Earth MOID = 0.2355 AU
Epoch 2007 Oct. 27.0 TT = JDT 2454400.5                 MPC
M 346.11894              (2000.0)            P               Q
n   0.27266255     Peri.   76.89181     +0.05488890     -0.92947868
a   2.3553334      Node    23.40672     +0.05171644     -0.36218317
e   0.6193055      Incl.   66.66771     +0.99715225     +0.06994808
P   3.61           H   21.2           G   0.15           U   9
Residuals in seconds of arc
071008 G96  0.5-  0.2+    071008 G96  0.3-  0.0     071009 G96  0.2+  0.0
071008 G96  0.2+  0.1-    071008 G96  0.1-  0.0     071009 G96  0.1-  0.4+
071008 G96  0.2+  0.1-    071009 G96  0.1+  0.2-    071009 G96  0.1+  0.4-
071008 G96  0.0   0.2+    071009 G96  0.3-  0.4+    071009 G96  0.4-  0.3-
071008 G96  0.1+  0.1-    071009 G96  0.1-  0.2-
071008 G96  0.4+  0.0     071009 G96  0.4+  0.2+

Ephemeris:
2007 TM15                a,e,i = 2.36, 0.62, 67                  q = 0.8967
Date    TT    R. A. (2000) Decl.     Delta      r     Elong.  Phase     V
2007 10 07    03 15.49   +08 47.8    0.359    1.306   143.4    27.1    20.8
2007 10 12    02 40.12   +19 32.2    0.286    1.262   154.2    20.1    20.0
2007 10 17    01 35.01   +34 23.5    0.242    1.220   154.5    20.6    19.6
2007 10 22    23 43.43   +47 40.4    0.240    1.178   135.2    36.5    19.9
2007 10 27    21 36.61   +51 17.6    0.280    1.138   114.3    52.8    20.7
2007 11 01    20 11.39   +48 35.5    0.345    1.099    98.7    63.2    21.3
2007 11 06    19 23.62   +44 57.9    0.421    1.063    87.8    68.8    21.9

Sonia Keys                   (C) Copyright 2007 MPC           M.P.E.C. 2007-T52

Read MPEC 2007-T51 Read MPEC 2007-T53


Our Web policy. Index to the CBAT/MPC/ICQ pages.


Valid HTML 4.01!